La Veta, CO

9:55 PM MST on February 07, 2016 (GMT -0700)
La Veta Pass

Weather History for KVTP - August, 2013

Change the Weather History Date:

Monday, August 19, 2013

  Actual Average (KTAD) Record (KTAD)
Temperature  
Mean Temperature 64 °F 71 °F  
Max Temperature 73 °F 86 °F 96 °F (2007)
Min Temperature 55 °F 57 °F 48 °F (1979)
Degree Days  
Heating Degree Days 1 0  
Month to date heating degree days 0  
Since 1 June heating degree days 42  
Since 1 July heating degree days 3  
Cooling Degree Days 0 7  
Month to date cooling degree days 139  
Year to date cooling degree days 574  
Since 1 June cooling degree days 546  
Growing Degree Days 14 (Base 50)    
Moisture  
Dew Point 40 °F    
Average Humidity 45    
Maximum Humidity 58    
Minimum Humidity 31    
Precipitation  
Precipitation 0.00 in 0.07 in 1.67 in (1965)
Month to date precipitation 1.51  
Year to date precipitation 9.74  
Sea Level Pressure  
Sea Level Pressure 30.55 in    
Wind  
Wind Speed 5 mph (East)    
Max Wind Speed 15 mph    
Max Gust Speed 25 mph    
Visibility 10 miles    
Events Thunderstorm    
T = Trace of Precipitation, MM = Missing Value Source: NWS Daily Summary

Daily Weather History Graph

Daily Weather History Graph

Search for Another Location

Airport or City:

Trip Planner

Search our weather history database for the weather conditions in past years. The results will help you decide how hot, cold, wet, or windy it might be!

Date:

Astronomy

Aug. 19, 2013 Rise Set
Actual Time 6:20 AM MDT 7:47 PM MDT
Civil Twilight 5:52 AM MDT 8:14 PM MDT
Nautical Twilight 5:19 AM MDT 8:47 PM MDT
Astronomical Twilight 4:44 AM MDT 9:22 PM MDT
Moon 6:40 PM MDT (8/19) 4:43 AM MDT (8/19)
Length of Visible Light 14h 22m
Length of Day
13h 27m
Waxing Gibbous, 97% of the Moon is Illuminated
Aug 19
Waxing Gibbous
Aug 20
Full
Aug 28
Last Quarter
Sep 5
New
Sep 12
First Quarter

Hourly Weather History & Observations

Time (MDT) Temp. Dew Point Humidity Pressure Visibility Wind Dir Wind Speed Gust Speed Precip Events Conditions
10:34 AM 62.6 °F 42.8 °F 48% 30.58 in 10.0 mi West 4.6 mph - N/A   Clear
10:55 AM 62.6 °F 42.8 °F 48% 30.58 in 10.0 mi Calm Calm - N/A   Clear
11:15 AM 64.4 °F 41.0 °F 42% 30.58 in 10.0 mi Calm Calm - N/A   Clear
11:33 AM 64.4 °F 41.0 °F 42% 30.58 in 10.0 mi Calm Calm - N/A   Clear
11:55 AM 68.0 °F 39.2 °F 35% 30.58 in 10.0 mi Calm Calm - N/A   Clear
12:15 PM 68.0 °F 41.0 °F 37% 30.57 in 10.0 mi Calm Calm - N/A   Scattered Clouds
12:35 PM 64.4 °F 42.8 °F 45% 30.56 in 10.0 mi ENE 5.8 mph - N/A   Mostly Cloudy
12:55 PM 68.0 °F 41.0 °F 37% 30.56 in 10.0 mi East 5.8 mph - N/A   Scattered Clouds
1:14 PM 71.6 °F 42.8 °F 35% 30.56 in 10.0 mi ESE 8.1 mph 16.1 mph N/A   Mostly Cloudy
1:34 PM 69.8 °F 39.2 °F 33% 30.56 in 10.0 mi ENE 4.6 mph 19.6 mph N/A Thunderstorm Scattered Clouds
1:55 PM 71.6 °F 41.0 °F 33% 30.56 in 10.0 mi ENE 10.4 mph 20.7 mph N/A   Clear
2:14 PM 73.4 °F 41.0 °F 31% 30.55 in 10.0 mi East 11.5 mph 19.6 mph N/A   Clear
2:35 PM 71.6 °F 41.0 °F 33% 30.53 in 10.0 mi ENE 12.7 mph 25.3 mph N/A   Clear
2:54 PM 66.2 °F 37.4 °F 35% 30.54 in 10.0 mi ENE 9.2 mph 20.7 mph N/A Thunderstorm Thunderstorm
3:14 PM 64.4 °F 37.4 °F 37% 30.54 in 10.0 mi ENE 11.5 mph 18.4 mph N/A   Mostly Cloudy
3:35 PM 64.4 °F 39.2 °F 40% 30.54 in 10.0 mi ENE 11.5 mph 20.7 mph N/A Thunderstorm Mostly Cloudy
3:53 PM 62.6 °F 37.4 °F 39% 30.54 in 10.0 mi ENE 12.7 mph 17.3 mph N/A   Overcast
4:15 PM 64.4 °F 37.4 °F 37% 30.53 in 10.0 mi East 11.5 mph 18.4 mph N/A   Overcast
4:35 PM 68.0 °F 37.4 °F 33% 30.52 in 10.0 mi East 13.8 mph 18.4 mph N/A   Scattered Clouds
4:55 PM 62.6 °F 37.4 °F 39% 30.52 in 10.0 mi East 12.7 mph 21.9 mph N/A   Scattered Clouds
5:15 PM 62.6 °F 37.4 °F 39% 30.51 in 10.0 mi ENE 11.5 mph 19.6 mph N/A   Clear
5:34 PM 62.6 °F 37.4 °F 39% 30.52 in 10.0 mi ENE 8.1 mph 16.1 mph N/A   Scattered Clouds
5:55 PM 62.6 °F 41.0 °F 45% 30.52 in 10.0 mi ENE 13.8 mph 19.6 mph N/A Thunderstorm Scattered Clouds
6:14 PM 62.6 °F 41.0 °F 45% 30.52 in 10.0 mi East 15.0 mph 25.3 mph N/A   Clear
6:34 PM 60.8 °F 41.0 °F 48% 30.52 in 10.0 mi ENE 10.4 mph - N/A   Clear
6:55 PM 60.8 °F 41.0 °F 48% 30.52 in 10.0 mi East 6.9 mph - N/A   Clear
7:14 PM 60.8 °F 41.0 °F 48% 30.52 in 10.0 mi East 4.6 mph - N/A   Clear
7:35 PM 59.0 °F 41.0 °F 51% 30.52 in 10.0 mi SE 6.9 mph - N/A   Clear
7:54 PM 59.0 °F 41.0 °F 51% 30.54 in 10.0 mi SE 5.8 mph - N/A   Clear
8:15 PM 59.0 °F 39.2 °F 48% 30.54 in 10.0 mi SSE 5.8 mph - N/A   Clear
8:35 PM 57.2 °F 39.2 °F 51% 30.54 in 10.0 mi South 3.5 mph - N/A   Clear
8:54 PM 57.2 °F 39.2 °F 51% 30.54 in 10.0 mi South 4.6 mph - N/A   Clear
9:15 PM 57.2 °F 39.2 °F 51% 30.55 in 10.0 mi South 3.5 mph - N/A   Clear
9:35 PM 57.2 °F 41.0 °F 55% 30.56 in 10.0 mi SSW 4.6 mph - N/A   Clear
9:54 PM 57.2 °F 41.0 °F 55% 30.56 in 10.0 mi Calm Calm - N/A   Clear
10:15 PM 55.4 °F 41.0 °F 58% 30.56 in 10.0 mi Calm Calm - N/A   Clear
10:35 PM 55.4 °F 41.0 °F 58% 30.56 in 10.0 mi Calm Calm - N/A   Clear
10:55 PM 57.2 °F 41.0 °F 55% 30.56 in 10.0 mi Calm Calm - N/A   Clear
11:15 PM 55.4 °F 41.0 °F 58% 30.56 in 10.0 mi Calm Calm - N/A   Clear
11:35 PM 57.2 °F 41.0 °F 55% 30.55 in 10.0 mi Calm Calm - N/A   Clear
11:55 PM 55.4 °F 41.0 °F 58% 30.55 in 10.0 mi Calm Calm - N/A   Clear